Terminal Aerodrome Forecast
Issued by NWS Shreveport, LA

Home | Current Version | Previous Version | Text Only | Print | Product List | Glossary On
Versions: 1 2 3 4 5 6 7 8 9 10 11 12 13 14 15 16 17 18 19 20 21
000
FTUS44 KSHV 050300 AAA
TAFGGG
TAF AMD
KGGG 050315Z 0503/0524 02014G22KT P6SM -RA OVC008
      TEMPO 0506/0510 36012KT 3SM RAPL BR SCT010 OVC020
     FM051000 01015KT 5SM -FZRA BR OVC015
     FM051300 04012G20KT 5SM -SN BR OVC025
     FM051500 03012KT P6SM BKN035=

USA.gov is the U.S. government's official web portal to all federal, state and local government web resources and services.